Flag for Canada Weather past 2 weeks in Owen Sound, Ontario, Canada

Now
63 °F

Partly sunny.


Feels Like: 63 °F
Forecast: N/A
Wind: 10 mph from Southwest

Location: Wiarton

Current Time: Jul 29, 2014 at 7:23:27 PM

Latest Report: Jul 29, 2014 at 7:00 PM


Visibility: 15 mi

Pressure: 29.92 "Hg

Humidity: 77%

Dew point: 55 °F

Location of Owen SoundLocation

Historic Weather in Owen Sound — Graph

°F

Owen Sound temperature yesterday

Maximum temperature yesterday: 63 °F (at 12:00 AM)
Minimum temperature yesterday: 57 °F (at 7:00 AM)
Average temperature yesterday: 59 °F

Past Weeks' High & Low Weather Summary

 TemperatureHumidityPressure
High81 °F (Jul 22, 11:00 AM)100% (Jul 15, 11:00 PM)30.23 "Hg (Jul 15, 11:00 PM)
Low46 °F (Jul 24, 5:00 AM)47% (Jul 14, 6:00 PM)29.62 "Hg (Jul 15, 10:00 AM)
Average63 °F80%29.96 "Hg
* Reported Jul 14 6:00 PM — Jul 29 6:00 PM, Owen Sound, Weather by CustomWeather, © 2014

Note: Actual official high and low records may vary slightly from our data, if they occured in-between our weather recording intervals... More about our weather records

Advertising

Owen Sound weather history for previous 24 hours

 ConditionsComfort  
Time TempWeatherWind HumidityBarometerVisibility
6:00 PM
Jul 29
63 °FPartly sunny.8 mph83%29.91 "Hg15 mi
5:00 PM63 °FPartly sunny.10 mph77%29.91 "Hg15 mi
4:00 PM61 °FOvercast.13 mph83%29.91 "Hg15 mi
3:48 PMN/AOvercast.14 mphN/AN/A15 mi
3:00 PM59 °FSprinkles. Low clouds.12 mph88%29.91 "Hg15 mi
2:45 PMN/ASprinkles.14 mphN/AN/A15 mi
2:00 PM63 °FPartly sunny.12 mph77%29.91 "Hg15 mi
1:00 PM59 °FSprinkles. Low clouds.12 mph94%29.93 "Hg10 mi
12:00 PM59 °FSprinkles. Mostly cloudy.9 mph88%29.93 "Hg15 mi
11:00 AM59 °FMostly cloudy.12 mph88%29.93 "Hg15 mi
10:00 AM59 °FPartly sunny.6 mph82%29.93 "Hg15 mi
9:00 AM57 °FPartly sunny.3 mph94%29.93 "Hg15 mi
8:00 AM55 °FPartly sunny.3 mph94%29.92 "Hg15 mi
7:00 AM52 °FPassing clouds.No wind94%29.91 "Hg15 mi
6:00 AM48 °FPassing clouds.No wind94%29.90 "Hg15 mi
5:00 AM52 °FPassing clouds.6 mph94%29.90 "Hg15 mi
4:00 AM52 °FPassing clouds.6 mph94%29.90 "Hg15 mi
3:00 AM55 °FPassing clouds.6 mph88%29.90 "Hg15 mi
2:00 AM55 °FPassing clouds.6 mph88%29.91 "Hg15 mi
1:00 AM55 °FPassing clouds.6 mph82%29.92 "Hg15 mi
12:00 AM57 °FPassing clouds.6 mph82%29.92 "Hg15 mi
11:00 PM
Jul 28
57 °FPassing clouds.6 mph77%29.93 "Hg15 mi
10:00 PM59 °FPassing clouds.6 mph72%29.92 "Hg15 mi
9:00 PM59 °FPartly sunny.6 mph77%29.91 "Hg15 mi
8:00 PM63 °FPartly sunny.6 mph64%29.90 "Hg15 mi
7:00 PM63 °FPartly sunny.12 mph56%29.90 "Hg15 mi
Weather by CustomWeather, © 2014

See weather overviewHow to use our weather pages